www.pogodaiklimat.ru

Погода и климат >> Архив погоды >> Филиппины >> Тайябас


ПОГОДА в Тайябасе

  • Прогноз погоды в Тайябасе
  • Монитор погоды в Тайябасе

АРХИВ ПОГОДЫ в Тайябасе

Время (UTC), дата Ветер
(напр.,м/с)
 
Видим.   Явления Облачность Т
(С)
Тd
(С)
f
(%)
Тe
(С)
Тes
(С)
Комфортность P
(гПа)
Po
(гПа)
Тmin
(С)
Tmax
(С)
R
(мм)
R24
(мм)
S
(см)
00 10.09 ЮЗ 2 22 км 10/4 600 м
[Cu med, cong Ac und]
+26.4 +24.5 89 +37 +38 очень
душно
1009.9 992.2 +25.0
03 10.09 ЮЗ 2 22 км 8/4 600 м
[Cu med, cong Ac As]
+30.0 +26.2 80 +45 +52 опасность
перегрева
1009.6 992.0
06 10.09 С 3 22 км 8/4 600 м
[Cu med, cong Ac As]
+31.6 +25.6 71 +47 +51 опасность
перегрева
1008.0 990.5
09 10.09 Ю 1 25 км 10/4 600 м
[Cu med, cong Ac und]
+28.8 +23.8 74 +39 +40 очень
душно
1008.1 990.5
12 10.09 С 1 20 км 5/1 600 м
[Cu med, cong Cs]
+27.0 +23.7 82 +37 +37 очень
душно
1010.3 992.6 +32.5
15 10.09 Ю 1 20 км 10/3 600 м
[Cu med, cong Ac und]
+24.8 +23.2 91 +33 +33 очень
душно
1010.4 992.7
18 10.09 С 1 20 км 10/3 600 м
[Cu med, cong Ac As Cs]
+25.1 +22.1 83 +32 +32 очень
душно
1009.5 991.9
21 10.09 СВ 2 22 км 5/1 600 м
[Cu med, cong Ac As]
+25.2 +20.8 77 +32 +32 очень
душно
1099.1 991.4
00 11.09 ЮЗ 2 22 км 8/4 600 м
[Cu med, cong Ac As]
+27.0 +24.4 86 +38 +40 очень
душно
1009.7 992.0 +24.0
03 11.09 Ю 2 22 км 8/4 600 м
[Cu med, cong Ac As]
+29.6 +26.3 82 +45 +51 опасность
перегрева
1009.6 991.9
06 11.09 СВ 3 22 км 8/4 600 м
[Cu med, cong Ac As]
+30.8 +24.6 70 +44 +48 опасность
перегрева
1006.6 989.0
09 11.09 ЮЗ 3 20 км 10/4 600 м
[Cu med, cong Ac und]
+27.8 +24.9 84 +40 +40 очень
душно
1006.7 988.7
12 11.09 В 1 20 км 6/3 600 м
[Cu med, cong Cs]
+26.5 +23.9 86 +37 +37 очень
душно
1007.5 989.9 +32.0
15 11.09 штиль 0 20 км 10/4 540 м
[Cu med, cong Ac und]
+24.8 +22.8 89 +33 +33 очень
душно
1007.6 990.0 2
18 11.09 штиль 0 15 км 10/4 540 м
[Cu med, cong Ac und]
+24.4 +22.8 91 +32 +32 очень
душно
1005.7 988.1 3
21 11.09 штиль 0 15 км слаб. ливневой дождь 10/4 540 м
[Sc As op]
+24.2 +22.8 92 +32 +32 очень
душно
1004.4 986.8 0.5
00 12.09 Ю 1 20 км слаб. дождь 10/4 540 м
[Cu med, cong As op]
+25.0 +23.6 92 +34 +35 очень
душно
1006.8 989.1 +23.5 5
03 12.09 В 1 20 км слаб. дождь 10/4 540 м
[Cu med, cong As op]
+24.6 +23.8 95 +33 +36 очень
душно
1006.8 989.0 9
06 12.09 Ю 1 20 км слаб. дождь 10/4 540 м
[Cu med, cong As op]
+25.4 +24.2 93 +35 +37 очень
душно
1003.3 985.6 20
09 12.09 СЗ 1 20 км мгла {дождь} 10/4 540 м
[Cu med, cong Ac und]
+25.2 +23.6 91 +34 +34 очень
душно
1002.8 985.1 0.0
12 12.09 ЮЗ 2 20 км {дождь} 8/3 600 м
[Cu med, cong Ac As]
+25.0 +23.4 91 +34 +34 очень
душно
1004.5 986.8 +27.5 0.0
15 12.09 штиль 0 20 км 10/4 540 м
[Cu med, cong Ac und]
+24.5 +22.7 90 +32 +32 очень
душно
1005.0 987.2
18 12.09 штиль 0 20 км 10/4 540 м
[Cu med, cong Ac und]
+24.4 +22.9 91 +32 +32 очень
душно
1003.7 986.0
21 12.09 штиль 0 20 км 10/4 540 м
[Cu med, cong Ac und]
+24.2 +22.6 91 +32 +32 очень
душно
1003.7 986.0
00 13.09 Ю 1 20 км слаб. дождь 10/4 540 м
[Cu med, cong As op]
+25.0 +23.6 92 +34 +35 очень
душно
1004.7 987.0 +24.0 23
03 13.09 Ю 3 20 км слаб. дождь 10/4 540 м
[Cu med, cong As op]
+26.0 +24.7 93 +37 +39 очень
душно
1005.6 987.9 1
06 13.09 В 1 20 км осадки на расстоянии {ливн. осадки} 10/4 540 м
[Cu med, cong Ac und]
+28.6 +26.5 88 +44 +47 опасность
перегрева
1003.7 986.1 1
09 13.09 СВ 1 18 км слаб. дождь 10/3 540 м
[Cu med, cong Ac As Cs]
+26.2 +25.1 94 +38 +38 очень
душно
1004.3 986.6 1
12 13.09 ЮВ 1 18 км слаб. ливневой дождь 10/3 500 м
[Cb cap As op]
+25.6 +24.9 96 +36 +36 очень
душно
1007.1 989.4 +30.0 1
15 13.09 штиль 0 20 км 10/4 540 м
[Cu med, cong Ac und]
+24.9 +23.7 93 +34 +34 очень
душно
1007.6 989.9
18 13.09 штиль 0 20 км 8/4 540 м
[Cu med, cong Ac trans]
+24.2 +22.6 91 +32 +32 очень
душно
1005.7 988.0
21 13.09 штиль 0 20 км 8/4 540 м
[Sc Ac As]
+24.0 +22.6 92 +31 +31 очень
душно
1006.5 988.8
00 14.09 Ю 1 22 км 6/3 600 м
[Cu med, cong Cs]
+27.0 +25.7 93 +40 +44 очень
душно
1007.2 989.5 +23.5 2
03 14.09 Ю 2 22 км 8/4 600 м
[Cu med, cong Ac As]
+29.5 +26.3 83 +45 +51 опасность
перегрева
1007.1 989.5
06 14.09 Ю 2 20 км 8/4 540 м
[Cu med, cong Ac As]
+28.2 +26.5 91 +44 +48 опасность
перегрева
1005.9 988.2 0.2
09 14.09 ЮЗ 1 15 км слаб. ливневой дождь 10/5 500 м
[Cb cap As op]
+28.4 +24.6 80 +40 +40 очень
душно
1006.3 988.6 0.0
12 14.09 СВ 1 15 км слаб. дождь 10/4 500 м
[Sc As op]
+25.2 +23.9 93 +35 +35 очень
душно
1008.7 991.0 +31.0 19
15 14.09 ЮЗ 2 20 км {дождь} 10/4 540 м
[Cu med, cong Ac und]
+24.9 +23.3 91 +33 +33 очень
душно
1009.2 991.5 0.0
18 14.09 штиль 0 20 км {ливн. осадки} 9/4 540 м
[Cu med, cong Ac As]
+24.3 +22.9 92 +32 +32 очень
душно
1007.9 990.2 0.5
21 14.09 штиль 0 20 км 9/4 540 м
[Cu med, cong Ac As]
+24.2 +23.1 94 +32 +32 очень
душно
1007.7 990.0
00 15.09 ЮЗ 2 20 км 8/4 600 м
[Cu med, cong Ac As]
+26.0 +23.6 87 +35 +37 очень
душно
1008.8 991.0 +23.5 9
03 15.09 ЮЗ 2 20 км 8/4 600 м
[Cu med, cong Ac cuf]
+28.2 +25.0 83 +41 +47 опасность
перегрева
1007.9 990.2
06 15.09 ЮЗ 5 20 км 8/4 600 м
[Cu med, cong Ac As]
+28.0 +24.1 79 +39 +41 очень
душно
1006.0 988.3
09 15.09 ЮЗ 2 18 км слаб. ливневой дождь 10/4 540 м
[Cu med, cong Ac und]
+25.5 +23.5 89 +35 +35 очень
душно
1005.6 987.9 0.0
12 15.09 З 3
{9}
15 км слаб. ливневой дождь 10/4 540 м
[Cu med, cong Ac und]
+24.8 +23.0 90 +33 +33 очень
душно
1006.9 989.2 +29.5 0.0
15 15.09 ЮЗ 4 20 км 9/4 540 м
[Sc Ac As]
+25.3 +22.7 86 +33 +33 очень
душно
1007.5 989.8
18 15.09 З 1 18 км слаб. ливневой дождь 10/3 540 м
[Sc As op Cs]
+25.3 +22.9 87 +34 +34 очень
душно
1006.1 988.5 0.2
21 15.09 ЮЗ 6
{11}
18 км {ливн. осадки, дождь} 10/6 540 м
[Sc Ac und]
+26.6 +22.3 77 +35 +35 очень
душно
1005.4 987.7 1
00 16.09 ЮЗ 1 20 км мгла {туман} 10/4 600 м
[Cu med, cong Ac und]
+26.0 +23.3 85 +35 +36 очень
душно
1006.9 989.2 +24.0 0.0
03 16.09 ЮЗ 5 18 км мгла {туман} 9/4 600 м
[Cu med, cong Ac As]
+27.9 +24.4 81 +39 +42 очень
душно
1006.6 989.0 0.0
06 16.09 З 3 18 км слаб. ливневой дождь {туман} 10/4 540 м
[Cu med, cong Ac und]
+26.8 +23.1 80 +36 +38 очень
душно
1004.8 987.1 0.0
09 16.09 ЮВ 3 18 км осадки на расстоянии 10/4 540 м
[Cu med, cong Ac und]
+26.0 +23.3 85 +35 +35 очень
душно
1004.2 986.6
12 16.09 ЮЗ 1 18 км 10/4 540 м
[Cu med, cong Ac und]
+25.7 +24.4 93 +36 +36 очень
душно
1005.1 987.4 +29.0
15 16.09 Ю 4 18 км 9/5 540 м
[Cu med, cong Ac As]
+26.2 +24.5 90 +37 +37 очень
душно
1005.7 988.1
18 16.09 Ю 1 18 км слаб. ливневой дождь 9/4 540 м
[Sc As op]
+25.4 +24.6 95 +36 +36 очень
душно
1004.7 987.0 0.0

 

Местоположение метеостанции Тайябас (Филиппины): широта 14.03 долгота 121.58 высота над уровнем моря 158 м.

В архиве по умолчанию представлена погода в Тайябасе за последнюю неделю. Архивные данные за месяц целиком и за предыдущие месяцы, начиная с января 2011 года, Вы можете получить, выбрав интересующий диапазон дат из раскрывающегося списка и нажав кнопку "Ввод!".


*Определитесь, кто Вы:
робот инопланетянин человек

Внимание! Время в таблицах - всемирное. Для получения местного времени необходимо прибавить поправку, которая равна 8 ч.

Смотрите также архив погоды в соседних городах и на ближайших метеорологических станциях:

Погода на Алабате (Филиппины) (47 км)
Погода на Амбулонге (Филиппины) (57 км)
Погода в Танае (Филиппины) (58 км)
Погода в Инфанте (Филиппины) (80 км)
Погода в Калапане (Филиппины) (80 км)
Погода в Аэропорту Ninoy Aquino (Филиппины) (83 км)
Погода в Маниле (Филиппины) (89 км)
Погода в Сангли Пойнт (Филиппины) (89 км)
Погода в Научном саду (Филиппины) (91 км)
Погода в Даете (Филиппины) (151 км)

Пояснения к столбцам:

Ветер - указаны скорость ветра в м/с - средняя за 10 мин, порывы в срок и между сроками (в фигурных скобках) и направление, откуда дует ветер: С - северный, СВ - северо-восточный, В - восточный, ЮВ - юго-восточный, Ю - южный, ЮЗ - юго-западный, З - западный, СЗ - северо-западный.
Видимость - горизонтальная дальность видимости в метрах или километрах. При видимости от 1 до 10 км при отсутствии осадков обычно наблюдается дымка, при ухудшении видимости до 1 км и менее - туман. В сухую погоду видимость может ухудшаться дымом, пылью или мглою.
Явления - указаны атмосферные явления, наблюдавшиеся в срок или в последний час перед сроком; фигурными скобками обозначены явления, наблюдавшиеся между сроками (за 1-3 часа до срока); квадратными скобками обозначены град или гололедные отложения с указанием их диаметра в мм.
Облачность - указаны через наклонную черту общая и нижняя облачность в баллах и высота нижней границы облаков в метрах; квадратными скобками обозначены формы облаков: Ci - перистые, Cs - перисто-слоистые, Cc - перисто-кучевые, Ac - высококучевые, As - высокослоистые, Sc - слоисто-кучевые, Ns - слоисто-дождевые, Cu - кучевые, Cb - кучево-дождевые. Подробнее классификацию облаков см. в Атласе облаков (PDF).
T - Температура воздуха - температура, измеренная на высоте 2 м над землей.
Td - Температура точки росы - температура, при понижении до которой содержащийся в воздухе водяной пар достигнет насыщения.
f - Относительная влажность воздуха - влажноcть воздуха, измеренная на высоте 2 м над землей.
Te - Эффективная температура - температура, которую ощущает одетый по сезону человек в тени. Характеристика душности погоды. При расчете учитывается влияние влажности воздуха и скорости ветра на теплоощущения человека.
Tes - Эффективная температура на солнце - температура, которую ощущает человек, с поправкой на солнечный нагрев. Характеристика знойности погоды. Зависит от высоты солнца над горизонтом, облачности и скорости ветра. Ночью, в пасмурную погоду, а также при ветре 12 м/с и более поправка равна нулю.
P - Атмосферное давление - приведенное к уровню моря атмосферное давление.
Po - Атмосферное давление - измеренное на уровне метеостанции атмосферное давление.
Tmin - Минимальная температура - минимум температуры воздуха на высоте 2 м над землей.
Tmax - Максимальная температура - максимум температуры воздуха на высоте 2 м над землей.
R - Количество осадков - Количество выпавших осадков за период времени, мм. При наведении курсора мыши на число - период времени, за который выпало указанное количество осадков.
R24 - Количество осадков - Количество выпавших осадков за 24 часа, мм.
S - Снежный покров - Высота снежного покрова, см. При наведении курсора мыши на число - состояние снежного покрова и степень покрытия местности в баллах.